Weather in Maminskoye

Russia / Sverdlovsk Oblast     56°26′22″N   61°24′10″E
temp.,
°C
wind,
m/s
gust,
m/s
humid.,
%
clouds,
%
prec.,
mm/h
press.,
hPa
HPBL,
m
5 august, thu
thu523:00+19ese388729 0.1 1012165
02:00+18ssw22886 0.0 101022
05:00+18nw228481 0.0 101037
08:00+23nnw116793 0.0 1009125
11:00+29ssw234676 0.0 1008648
14:00+32ssw123595 0.0 10071345
17:00+33wsw343040 0.0 10062747
20:00+25wnw365262 0.1 1006120
6 august, fri
fri623:00+20sw61284100 0.8 1009350
02:00+18nw499643 1.7 1007318
05:00+16wnw5895100 2.4 1008440
08:00+16wnw4784100 0.0 1009676
11:00+18nw5772100 0.0 1009991
14:00+19nw6867100 0.0 10101025
17:00+19nw696963 0.1 1010782
20:00+18nnw5108074 0.2 1011619
7 august, sat
sat723:00+16nw5107799 0.3 1011440
02:00+15nw5118099 0.0 1011426
05:00+15nw497396 0.0 1011344
08:00+16nw59655 0.0 1012504
11:00+20nw67400 0.0 10121355
14:00+23nw68340 0.0 10121838
17:00+23nw68370 0.0 10122105
20:00+17nnw71263100 0.0 1013620
8 august, sun
sun823:00+14nw410770 0.0 1014380
02:00+12nw4118222 0.0 1014380
05:00+11nw510850 0.0 1015437
08:00+13nw697457 0.0 1015485
11:00+18nnw685990 0.0 1015939
14:00+20n6856100 0.0 10151148
17:00+22n685318 0.0 10161287
20:00+18n397135 0.0 1017357
9 august, mon
mon923:00+16nw497775 0.0 1017202
02:00+14nw49900 0.0 1018189
05:00+13nw49885 0.0 1019218
08:00+16nnw35716 0.0 1018326
11:00+21nw3356100 0.0 1018931
14:00+24nw33438 0.0 10171430
17:00+25nnw4539100 0.0 10171749
20:00+20n3357100 0.0 101845